Location: Stuttgart
(48.8069°N, 9.1544°E)
Time: 13:40:45
(UTC+02:00)

ELECTRON R/B - Visible Passes

Search period start: 20 May 2018 00:00
Search period end: 30 May 2018 00:00
Orbit: 285 x 480 km, 82.9° (Epoch: 19 May)

Date Brightness Start Highest point End Pass type
(mag) Time Alt. Az. Time Alt. Az. Time Alt. Az.
20 May 4.8 22:26:24 10° NNW 22:28:50 57° W 22:30:40 15° S visible
21 May 7.4 23:04:09 10° WNW 23:05:07 12° W 23:06:04 10° WSW visible
22 May 4.5 22:06:29 10° NNW 22:08:55 70° W 22:11:20 10° S visible
23 May 7.3 22:43:47 10° WNW 22:45:05 13° W 22:46:23 10° WSW visible
24 May 4.3 21:46:15 10° N 21:48:42 85° W 21:51:10 10° S visible
25 May 7.3 22:23:10 10° NW 22:24:45 15° W 22:26:20 10° SW visible
27 May 7.2 22:02:19 10° NW 22:04:07 18° W 22:05:58 10° SW visible
